User: anonymous   Login
Location: Space Photons Observatory
(33.2428°N, 111.5467°W)
Time: 16:50:17
(UTC-07:00)
Language:

RESURS DK-1 - Orbit

View from above orbital plane
View from above orbital plane
View from above satellite
View from above satellite

Ground track
Ground track

The orbit data is extracted from the following two-line orbital elements,

1 29228U 06021A   14297.83789668  .00001505  00000-0  12548-3 0  3628
2 29228 069.9382 035.0015 0004356 346.0447 152.7447 15.00903844463021
Epoch (UTC): 24 October 2014 20:06:34
Eccentricity: 0.0004356
inclination: 69.9382°
perigee height: 561 km
apogee height: 567 km
right ascension of ascending node: 35.0015°
argument of perigee: 346.0447°
revolutions per day: 15.00903844
mean anomaly at epoch: 152.7447°
orbit number at epoch: 46302

The dashed part of the orbit path shows where the satellite is in the earth's shadow,  

DLR